K1LBG Weather Reports


time (UTC)temp
C
wind
direction
speed
KPH
gust
KPH
rain 1hr
cm
rain 24hr
cm
rain mn
cm
humidity
%
barometer
mb
20260507192625 18 17 4.8 14.5 0.00 0.89 0.74 39 1005.5
20260507192147 18 292 4.8 19.3 0.00 0.89 0.74 43 1005.5
20260507191653 18 323 8.0 24.1 0.00 0.89 0.74 41 1005.6
20260507191153 18 338 11.3 30.6 0.00 0.89 0.74 41 1005.6
20260507190626 18 327 19.3 30.6 0.00 0.89 0.74 40 1005.6
20260507190135 18 313 4.8 19.3 0.00 0.89 0.74 42 1005.8
20260507185626 18 265 9.7 19.3 0.00 0.89 0.74 39 1005.7
20260507185132 17 5 9.7 22.5 0.00 0.89 0.74 40 1005.7
20260507184658 18 263 9.7 22.5 0.00 0.89 0.74 40 1006.0
20260507184139 18 257 8.0 14.5 0.00 0.89 0.74 42 1005.9
20260507183628 17 38 4.8 25.7 0.00 0.89 0.74 46 1005.9
20260507183137 18 275 9.7 30.6 0.00 0.89 0.74 39 1006.0
20260507182643 18 205 6.4 25.7 0.00 0.89 0.74 46 1006.2
20260507182150 17 329 11.3 25.7 0.00 0.89 0.74 42 1006.2
20260507181635 18 281 8.0 22.5 0.00 0.89 0.74 43 1006.1
20260507181125 18 281 6.4 20.9 0.00 0.89 0.74 45 1006.2
20260507180636 17 223 8.0 29.0 0.00 0.89 0.74 42 1006.2
20260507180139 17 355 9.7 29.0 0.00 0.89 0.74 46 1006.2
20260507175635 17 289 6.4 27.4 0.00 0.89 0.74 45 1006.3
20260507175122 17 339 16.1 27.4 0.00 0.89 0.74 45 1006.5
20260507174650 17 351 16.1 27.4 0.00 0.89 0.74 45 1006.3
20260507174145 17 241 14.5 29.0 0.00 0.89 0.74 43 1006.2
20260507173623 17 290 11.3 29.0 0.00 0.89 0.74 44 1006.4
20260507173136 17 150 12.9 22.5 0.00 0.89 0.74 40 1006.5
20260507172625 17 296 6.4 22.5 0.00 0.89 0.74 39 1006.4
20260507172202 17 315 9.7 27.4 0.00 0.89 0.74 43 1006.5
20260507171713 17 273 9.7 27.4 0.00 0.89 0.74 42 1006.6
20260507171124 17 331 6.4 25.7 0.00 0.89 0.74 44 1006.7
20260507170640 17 5 9.7 25.7 0.00 0.89 0.74 41 1006.7
20260507170128 17 31 11.3 29.0 0.00 0.89 0.74 44 1006.8
20260507165628 17 315 9.7 29.0 0.00 0.89 0.74 47 1006.9
20260507165138 16 333 8.0 37.0 0.00 0.89 0.74 46 1006.8
20260507164632 17 276 14.5 37.0 0.00 0.89 0.74 46 1006.9
20260507164156 17 290 12.9 24.1 0.00 0.89 0.74 47 1006.9
20260507163628 16 314 9.7 24.1 0.00 0.89 0.74 53 1007.0
20260507163149 16 231 6.4 29.0 0.00 0.89 0.74 52 1007.0
20260507162637 17 291 12.9 29.0 0.00 0.89 0.74 54 1006.9
20260507162128 17 317 16.1 27.4 0.00 0.89 0.74 52 1006.9
20260507161651 17 238 11.3 24.1 0.00 0.89 0.74 54 1007.0
20260507161142 17 12 6.4 24.1 0.00 0.89 0.74 59 1007.0
20260507160632 17 42 8.0 25.7 0.00 0.89 0.74 58 1007.0
20260507160151 17 303 8.0 29.0 0.00 0.89 0.74 60 1007.2
20260507155640 16 330 9.7 29.0 0.00 0.89 0.74 60 1007.1
20260507155146 16 360 8.0 24.1 0.00 0.89 0.74 60 1007.3
20260507154649 16 325 12.9 20.9 0.00 0.89 0.74 65 1007.3
20260507154137 16 39 1.6 17.7 0.00 0.89 0.74 63 1007.3
20260507153659 16 209 8.0 19.3 0.00 0.89 0.74 67 1007.5
20260507153125 16 273 4.8 24.1 0.00 0.89 0.74 63 1007.6
20260507152635 15 268 9.7 24.1 0.00 0.89 0.74 64 1007.6
20260507152142 16 13 6.4 24.1 0.00 0.89 0.74 61 1007.6
20260507151632 16 310 12.9 24.1 0.00 0.89 0.74 66 1007.6
20260507151135 15 77 3.2 25.7 0.00 0.89 0.74 63 1007.5
20260507150623 15 321 11.3 24.1 0.00 0.89 0.74 63 1007.6
20260507150127 15 293 11.3 24.1 0.00 0.89 0.74 68 1007.6
20260507145637 15 326 9.7 22.5 0.00 0.89 0.74 68 1007.7
20260507145126 15 334 11.3 17.7 0.00 0.89 0.74 70 1007.7
20260507144630 15 333 4.8 20.9 0.00 0.89 0.74 71 1007.8
20260507144141 15 345 4.8 20.9 0.00 0.89 0.74 73 1007.8
20260507143633 15 303 9.7 16.1 0.00 0.89 0.74 74 1007.8
20260507143125 14 335 8.0 16.1 0.00 0.89 0.74 76 1007.8
20260507142628 14 339 1.6 14.5 0.00 0.89 0.74 73 1007.9
20260507142141 14 237 3.2 14.5 0.00 0.89 0.74 75 1007.9
20260507141627 14 32 6.4 14.5 0.00 0.89 0.74 76 1008.0
20260507141134 13 355 8.0 14.5 0.00 0.89 0.74 81 1007.9
20260507140625 13 257 0.0 16.1 0.00 0.89 0.74 78 1008.0
20260507140134 13 298 4.8 12.9 0.00 0.89 0.74 81 1008.1
20260507135656 13 283 1.6 17.7 0.00 0.89 0.74 77 1008.0
20260507135137 13 328 8.0 17.7 0.00 0.89 0.74 81 1008.1
20260507134647 13 293 4.8 16.1 0.00 0.89 0.74 82 1008.0
20260507134135 12 200 4.8 17.7 0.00 0.89 0.74 83 1008.1
20260507133626 12 278 8.0 20.9 0.00 0.89 0.74 82 1008.2
20260507133150 12 315 9.7 20.9 0.00 0.89 0.74 83 1008.2
20260507132639 12 238 4.8 16.1 0.00 0.89 0.74 87 1008.2
20260507132122 12 360 3.2 17.7 0.00 0.89 0.74 88 1008.1
20260507131629 12 263 4.8 20.9 0.00 0.89 0.74 91 1008.1
20260507131135 11 304 8.0 20.9 0.00 0.89 0.74 89 1008.0
20260507130628 11 12 8.0 17.7 0.00 0.89 0.74 91 1008.1
20260507130136 11 15 4.8 19.3 0.00 0.89 0.74 92 1008.2
20260507125655 11 19 6.4 19.3 0.00 0.89 0.74 92 1008.3
20260507125130 11 355 9.7 19.3 0.00 0.89 0.74 94 1008.2
20260507124653 10 334 6.4 22.5 0.00 0.89 0.74 95 1008.1
20260507124140 10 313 6.4 22.5 0.00 0.89 0.74 96 1008.1
20260507123627 10 305 1.6 16.1 0.00 0.89 0.74 96 1008.1
20260507123149 10 314 8.0 14.5 0.00 0.89 0.74 95 1008.2
20260507122632 10 290 1.6 8.0 0.00 0.89 0.74 96 1008.2
20260507122154 10 355 3.2 11.3 0.00 0.89 0.74 96 1008.4
20260507121626 10 300 1.6 11.3 0.03 0.89 0.74 95 1008.5
20260507121140 10 284 3.2 6.4 0.03 0.89 0.74 95 1008.5
20260507120632 9 277 1.6 6.4 0.03 0.89 0.74 96 1008.5
20260507120130 9 298 3.2 6.4 0.03 0.89 0.74 95 1008.3
20260507115621 9 290 1.6 4.8 0.03 0.89 0.74 96 1008.0
20260507115205 9 277 0.0 4.8 0.05 0.89 0.74 96 1008.1
20260507114631 9 274 1.6 4.8 0.05 0.89 0.74 95 1008.2
20260507114137 9 313 1.6 4.8 0.05 0.89 0.74 95 1008.1
20260507113700 9 282 3.2 4.8 0.05 0.89 0.74 95 1008.0
20260507113147 9 276 0.0 4.8 0.08 0.89 0.74 95 1008.0
20260507112633 8 276 0.0 4.8 0.10 0.89 0.74 95 1008.2
20260507112141 8 276 0.0 4.8 0.13 0.89 0.74 95 1008.1
20260507111628 8 275 1.6 4.8 0.13 0.86 0.71 95 1008.0
20260507111145 8 265 0.0 3.2 0.15 0.86 0.71 95 1007.8
20260507110651 8 265 0.0 4.8 0.15 0.86 0.71 95 1007.8
20260507110159 8 326 1.6 4.8 0.18 0.86 0.71 95 1008.0
20260507105640 8 326 1.6 4.8 0.18 0.86 0.71 95 1007.8
20260507105131 8 360 0.0 6.4 0.15 0.84 0.69 95 1007.9
20260507104637 8 360 1.6 12.9 0.15 0.84 0.69 95 1007.5
20260507104123 8 355 1.6 12.9 0.15 0.84 0.69 94 1007.5
20260507103630 8 334 3.2 14.5 0.18 0.84 0.69 95 1007.5
20260507103123 8 333 3.2 14.5 0.15 0.81 0.66 94 1007.6
20260507102632 8 342 3.2 8.0 0.13 0.79 0.64 94 1007.6
20260507102131 8 360 1.6 8.0 0.10 0.76 0.61 94 1007.9
20260507101622 8 326 1.6 9.7 0.05 0.71 0.56 94 1007.9
20260507101128 8 5 4.8 9.7 0.05 0.71 0.56 94 1007.9
20260507100631 8 307 1.6 12.9 0.08 0.71 0.56 94 1007.9
20260507100136 8 351 3.2 12.9 0.05 0.69 0.53 94 1007.8
20260507095623 8 12 4.8 16.1 0.05 0.69 0.53 94 1007.6
20260507095202 8 344 3.2 14.5 0.05 0.69 0.53 94 1007.6
20260507094633 8 344 3.2 14.5 0.05 0.69 0.53 94 1007.6
20260507094137 8 5 4.8 16.1 0.05 0.69 0.53 94 1007.7
20260507093629 9 342 6.4 16.1 0.03 0.66 0.51 94 1007.2
20260507093137 9 9 4.8 17.7 0.03 0.66 0.51 94 1007.3
20260507092626 9 311 6.4 17.7 0.05 0.66 0.51 94 1007.3
20260507092130 9 350 6.4 12.9 0.05 0.66 0.51 94 1007.3
20260507091640 9 336 3.2 12.9 0.05 0.66 0.51 94 1007.2
20260507091130 9 5 3.2 16.1 0.08 0.66 0.51 93 1007.1
20260507090643 9 5 3.2 16.1 0.08 0.64 0.48 94 1007.1
20260507090144 9 5 4.8 14.5 0.10 0.64 0.48 93 1007.3
20260507085645 9 277 3.2 16.1 0.10 0.64 0.48 94 1007.4
20260507085134 9 355 4.8 16.1 0.13 0.64 0.48 94 1006.6
20260507084626 9 355 6.4 16.1 0.15 0.64 0.48 93 1006.8
20260507084152 9 321 8.0 16.1 0.20 0.64 0.48 93 1007.1
20260507083628 10 33 8.0 16.1 0.25 0.64 0.48 93 1007.0
20260507083133 10 327 9.7 14.5 0.30 0.61 0.46 93 1007.0
20260507082627 10 315 4.8 17.7 0.38 0.61 0.46 93 1007.0
20260507082150 10 315 4.8 17.7 0.46 0.61 0.46 93 1007.1
20260507081638 10 348 6.4 19.3 0.43 0.58 0.43 92 1007.1
20260507081129 10 49 6.4 19.3 0.43 0.58 0.43 93 1006.7
20260507080651 10 298 6.4 14.5 0.41 0.56 0.41 93 1006.9
20260507080140 10 304 1.6 12.9 0.38 0.53 0.38 93 1007.3
20260507075653 11 240 6.4 12.9 0.36 0.51 0.36 92 1007.4
20260507075202 11 5 6.4 20.9 0.36 0.51 0.36 92 1007.2
20260507074709 11 340 9.7 20.9 0.33 0.48 0.33 91 1007.4
20260507074130 11 325 6.4 19.3 0.28 0.43 0.28 91 1007.1
20260507073618 11 331 8.0 27.4 0.23 0.38 0.23 90 1007.2
20260507073130 12 294 12.9 27.4 0.13 0.28 0.13 88 1007.0
20260507072636 12 266 11.3 24.1 0.05 0.20 0.05 87 1006.8
20260507072144 12 313 6.4 16.1 0.00 0.15 0.00 87 1006.2
20260507071645 12 298 4.8 19.3 0.00 0.15 0.00 87 1005.8
20260507071136 12 355 1.6 19.3 0.00 0.15 0.00 89 1006.0
20260507070624 12 294 1.6 22.5 0.00 0.15 0.00 89 1005.9
20260507070146 12 350 8.0 22.5 0.00 0.15 0.00 89 1006.0
20260507065634 12 360 6.4 24.1 0.00 0.15 0.00 89 1006.0
20260507065125 12 327 11.3 24.1 0.00 0.15 0.00 90 1005.9
20260507064647 12 294 6.4 22.5 0.00 0.15 0.00 89 1006.1
20260507064133 12 27 9.7 19.3 0.00 0.15 0.00 90 1006.1
20260507063622 13 38 3.2 17.7 0.00 0.15 0.00 92 1006.1
20260507063147 13 19 3.2 19.3 0.00 0.15 0.00 92 1006.1
20260507062634 13 329 9.7 19.3 0.00 0.15 0.00 92 1006.1
20260507062123 13 333 6.4 17.7 0.00 0.15 0.00 93 1006.1
20260507061630 13 346 8.0 19.3 0.00 0.15 0.00 93 1006.1
20260507061157 13 328 9.7 19.3 0.00 0.15 0.00 93 1006.1
20260507060633 13 321 4.8 17.7 0.00 0.15 0.00 93 1006.3
20260507060129 13 327 4.8 19.3 0.00 0.15 0.00 93 1006.3
20260507055632 13 322 6.4 19.3 0.00 0.15 0.00 93 1006.3
20260507055137 13 350 1.6 19.3 0.00 0.15 0.00 93 1006.5
20260507054629 13 341 6.4 19.3 0.00 0.15 0.00 94 1006.4
20260507054134 13 294 4.8 17.7 0.00 0.15 0.00 94 1006.6
20260507053626 13 336 9.7 17.7 0.00 0.15 0.00 95 1006.5
20260507053131 14 306 4.8 20.9 0.00 0.15 0.00 95 1006.5
20260507052635 14 304 6.4 14.5 0.00 0.15 0.00 96 1006.6
20260507052141 14 336 3.2 9.7 0.00 0.15 0.00 96 1006.5
20260507051631 14 306 1.6 6.4 0.00 0.15 0.00 96 1006.8
20260507051155 14 258 3.2 6.4 0.00 0.15 0.00 96 1006.6
20260507050650 14 265 0.0 11.3 0.00 0.15 0.00 96 1006.5
20260507050152 14 271 1.6 11.3 0.00 0.15 0.00 96 1006.6
20260507045622 14 346 3.2 8.0 0.00 0.15 0.00 96 1006.6
20260507045145 14 235 3.2 12.9 0.00 0.15 0.00 96 1006.8
20260507044635 14 239 4.8 12.9 0.00 0.15 0.00 96 1006.7
20260507044127 14 234 3.2 8.0 0.00 0.15 0.00 96 1006.7
20260507043652 14 246 3.2 11.3 0.00 0.15 0.00 96 1006.6
20260507043158 14 260 1.6 11.3 0.00 0.15 0.00 96 1006.5
20260507042631 14 237 3.2 12.9 0.00 0.15 0.00 96 1006.6
20260507042153 14 259 1.6 8.0 0.00 0.15 0.00 96 1006.6
20260507041625 14 304 1.6 6.4 0.00 0.15 0.00 96 1006.4
20260507041134 14 297 1.6 11.3 0.00 0.15 0.00 96 1006.6
20260507040624 14 240 4.8 14.5 0.00 0.15 0.00 96 1006.7
20260507040130 14 256 3.2 14.5 0.00 0.15 0.15 96 1006.7
20260507035624 14 211 4.8 12.9 0.00 0.15 0.15 96 1006.6
20260507035134 14 259 1.6 9.7 0.00 0.15 0.15 96 1006.6
20260507034648 14 261 3.2 9.7 0.00 0.15 0.15 96 1006.6
20260507034137 14 229 3.2 11.3 0.00 0.15 0.15 96 1006.6
20260507033625 14 250 3.2 17.7 0.00 0.15 0.15 96 1006.6
20260507033131 14 225 8.0 19.3 0.00 0.15 0.15 96 1006.9
20260507032638 14 208 6.4 19.3 0.00 0.15 0.15 96 1006.8
20260507032126 13 200 8.0 16.1 0.00 0.15 0.15 96 1006.7
20260507031639 13 262 4.8 19.3 0.00 0.15 0.15 96 1006.5
20260507031143 13 204 11.3 19.3 0.00 0.15 0.15 96 1006.4
20260507030630 13 218 8.0 17.7 0.00 0.15 0.15 96 1006.6
20260507030139 13 198 8.0 16.1 0.00 0.15 0.15 96 1006.5
20260507025651 13 224 6.4 17.7 0.00 0.15 0.15 96 1006.4
20260507025138 13 247 4.8 17.7 0.00 0.15 0.15 96 1006.5
20260507024624 13 242 6.4 17.7 0.00 0.15 0.15 96 1006.5
20260507024128 13 242 6.4 17.7 0.00 0.15 0.15 96 1006.4
20260507023632 13 211 8.0 14.5 0.00 0.15 0.15 96 1006.4
20260507023121 13 213 6.4 14.5 0.00 0.15 0.15 96 1006.5
20260507022631 13 240 6.4 14.5 0.00 0.15 0.15 96 1006.5
20260507022136 13 243 4.8 16.1 0.00 0.15 0.15 96 1006.6
20260507021652 13 192 9.7 17.7 0.00 0.15 0.15 96 1006.6
20260507021150 13 242 4.8 17.7 0.00 0.15 0.15 96 1006.5
20260507020639 13 180 8.0 17.7 0.00 0.15 0.15 96 1006.3
20260507020132 13 209 8.0 17.7 0.00 0.15 0.15 96 1006.4
20260507015622 13 224 11.3 17.7 0.00 0.15 0.15 96 1006.6
20260507015151 13 205 9.7 17.7 0.00 0.15 0.15 96 1006.6
20260507014635 13 229 8.0 16.1 0.00 0.15 0.15 96 1006.6
20260507014125 13 192 9.7 19.3 0.00 0.15 0.15 96 1006.7
20260507013651 13 219 11.3 19.3 0.00 0.15 0.15 96 1006.6
20260507013122 13 203 9.7 19.3 0.00 0.15 0.15 96 1006.7
20260507012626 13 166 11.3 22.5 0.00 0.15 0.15 96 1006.8
20260507012150 13 218 6.4 22.5 0.00 0.15 0.15 96 1006.9
20260507011635 13 210 11.3 19.3 0.00 0.15 0.15 96 1007.0
20260507011125 13 226 8.0 19.3 0.00 0.15 0.15 96 1007.0
20260507010632 13 231 6.4 19.3 0.00 0.15 0.15 96 1006.9
20260507010122 13 216 12.9 20.9 0.00 0.15 0.15 96 1007.0
20260507005628 13 217 8.0 17.7 0.00 0.15 0.15 96 1007.0
20260507005148 13 219 11.3 19.3 0.00 0.15 0.15 96 1007.0
20260507004636 13 228 11.3 19.3 0.00 0.15 0.15 95 1007.0
20260507004124 13 229 8.0 16.1 0.00 0.15 0.15 95 1007.0
20260507003618 13 173 6.4 22.5 0.00 0.15 0.15 95 1006.9
20260507003123 13 242 14.5 20.9 0.00 0.15 0.15 95 1006.9
20260507002633 13 210 12.9 25.7 0.03 0.15 0.15 95 1006.8
20260507002155 13 223 11.3 22.5 0.03 0.15 0.15 95 1006.8
20260507001623 13 238 12.9 24.1 0.03 0.15 0.15 95 1006.9
20260507001136 13 197 14.5 29.0 0.03 0.15 0.15 95 1006.9
20260507000625 13 215 6.4 27.4 0.03 0.15 0.15 95 1006.8
20260507000148 13 205 9.7 27.4 0.03 0.15 0.15 95 1006.8
20260506235622 13 245 11.3 25.7 0.03 0.15 0.15 95 1006.8
20260506235131 13 207 9.7 29.0 0.05 0.15 0.15 95 1006.7
20260506234621 13 210 12.9 29.0 0.05 0.15 0.15 95 1006.7
20260506234143 13 230 9.7 20.9 0.05 0.15 0.15 95 1006.6
20260506233653 13 219 8.0 22.5 0.05 0.15 0.15 95 1006.6
20260506233143 13 199 11.3 27.4 0.08 0.15 0.15 95 1006.5
20260506232634 13 219 8.0 27.4 0.05 0.13 0.13 95 1006.6
20260506232124 13 209 9.7 20.9 0.05 0.13 0.13 94 1006.7
20260506231647 13 202 8.0 20.9 0.05 0.13 0.13 94 1006.7
20260506231138 13 197 4.8 22.5 0.05 0.13 0.13 94 1006.8
20260506230624 13 228 6.4 25.7 0.05 0.13 0.13 94 1006.8
20260506230147 13 254 8.0 25.7 0.05 0.13 0.13 94 1006.9
20260506225636 13 190 6.4 22.5 0.05 0.13 0.13 94 1006.8
20260506225122 13 210 8.0 22.5 0.05 0.10 0.10 94 1006.7
20260506224648 13 180 4.8 22.5 0.05 0.10 0.10 94 1006.7
20260506224136 13 191 8.0 29.0 0.05 0.10 0.10 94 1006.6
20260506223635 13 225 8.0 22.5 0.03 0.08 0.08 94 1006.6
20260506223153 14 207 8.0 24.1 0.05 0.08 0.08 94 1006.7
20260506222700 14 192 11.3 24.1 0.05 0.08 0.08 94 1006.6
20260506222128 14 205 8.0 24.1 0.05 0.08 0.08 94 1006.7
20260506221650 14 204 9.7 24.1 0.05 0.08 0.08 93 1006.8
20260506221122 14 170 6.4 22.5 0.05 0.08 0.08 93 1006.9
20260506220641 14 360 11.3 24.1 0.05 0.08 0.08 93 1007.0
20260506220131 14 200 11.3 19.3 0.05 0.08 0.08 93 1007.1
20260506215623 15 193 6.4 22.5 0.05 0.08 0.08 92 1007.1
20260506215145 15 191 14.5 25.7 0.03 0.05 0.05 92 1007.1
20260506214636 15 212 11.3 29.0 0.03 0.05 0.05 92 1007.0
20260506214147 15 209 6.4 29.0 0.03 0.05 0.05 91 1007.1
20260506213649 15 200 6.4 33.8 0.03 0.05 0.05 91 1007.2
20260506213154 15 204 19.3 33.8 0.00 0.03 0.03 91 1007.3
20260506212645 15 237 14.5 33.8 0.00 0.03 0.03 90 1007.3
20260506212132 15 198 19.3 35.4 0.00 0.03 0.03 90 1007.2
20260506211635 15 216 17.7 35.4 0.00 0.03 0.03 90 1007.4
20260506211158 15 228 16.1 35.4 0.00 0.03 0.03 90 1007.4
20260506210627 15 242 9.7 32.2 0.00 0.03 0.03 91 1007.5
20260506210156 15 244 14.5 32.2 0.00 0.03 0.03 91 1007.5
20260506205623 15 161 11.3 33.8 0.00 0.03 0.03 91 1007.4
20260506205127 15 234 12.9 33.8 0.00 0.03 0.03 91 1007.4
20260506204652 15 222 16.1 33.8 0.00 0.03 0.03 91 1007.5
20260506204140 15 222 12.9 37.0 0.00 0.03 0.03 90 1007.6
20260506203629 15 219 11.3 37.0 0.03 0.03 0.03 90 1007.5
20260506203155 16 245 12.9 37.0 0.03 0.03 0.03 90 1007.7
20260506202645 16 232 9.7 37.0 0.03 0.03 0.03 90 1007.7
20260506202155 16 210 11.3 30.6 0.03 0.03 0.03 90 1007.7
20260506201658 16 198 19.3 37.0 0.03 0.03 0.03 89 1007.6
20260506201126 16 228 16.1 37.0 0.03 0.03 0.03 89 1007.8
20260506200650 16 198 17.7 37.0 0.03 0.03 0.03 89 1007.8
20260506200141 16 226 19.3 37.0 0.03 0.03 0.03 89 1007.9
20260506195626 16 190 14.5 40.2 0.03 0.03 0.03 88 1007.7
20260506195149 16 232 11.3 40.2 0.03 0.03 0.03 88 1007.8
20260506194656 16 218 20.9 38.6 0.03 0.03 0.03 87 1007.7
20260506194123 16 210 12.9 29.0 0.03 0.03 0.03 87 1007.8
20260506193626 16 213 12.9 30.6 0.00 0.00 0.00 85 1007.9
20260506193128 17 232 11.3 29.0 0.00 0.00 0.00 84 1007.9